Location: Astronomy Adventures Observing Site
(35.3995°N, 106.1279°W)
Time: 20:16:31
(UTC-06:00)

Envisat - Pass Details

Date: 26 January 2022
Orbit: 764 x 765 km, 98.2° (Epoch: 27 May)

Event Time Altitude Azimuth Distance (km) Brightness Sun altitude
Rises 04:03:09 0° 26° (NNE) 3,233 6.6 -37.7°
Reaches altitude 10° 04:05:49 10° 39° (NE) 2,303 5.9 -37.1°
Maximum altitude 04:10:02 26° 96° (E) 1,462 4.9 -36.3°
Drops below altitude 10° 04:14:15 10° 152° (SSE) 2,292 5.7 -35.4°
Sets 04:16:53 0° 165° (SSE) 3,214 6.4 -34.9°
